Regional Weather Roundup
Issued by NWS

Home | Current Version | Previous Version | Text Only | Print | Product List | Glossary Off
Versions: 1 2 3 4 5 6 7 8 9 10 11 12 13 14 15 16 17 18 19 20 21 22 23 24 25 26 27 28 29 30 31 32 33 34 35 36 37 38 39 40 41 42 43 44 45 46 47 48 49 50

000
ASUS43 KMKX 250511
RWRWI

WISCONSIN REGIONAL WEATHER ROUNDUP
NATIONAL WEATHER SERVICE MILWAUKEE/SULLIVAN WI
1100 PM CST SAT JAN 24 2015

NOTE: "FAIR" INDICATES FEW OR NO CLOUDS BELOW 12,000 FEET WITH NO
SIGNIFICANT WEATHER AND/OR OBSTRUCTIONS TO VISIBILITY.

WIZ001-002-006>008-014>016-023>028-250600-
NORTHWEST WISCONSIN

CITY           SKY/WX    TMP DP  RH WIND       PRES   REMARKS
SUPERIOR ARPT  CLOUDY    24  17  75 E16G23    29.83R WCI  11
ASHLAND        CLOUDY    20  14  77 NE13      29.84R WCI   7
HAYWARD        CLOUDY    23  18  81 NE12      29.76R WCI  12
SIREN          CLOUDY    27  20  76 NE16G22   29.75R WCI  15
CUMBERLAND     CLOUDY    30  27  86 NE10      29.69R WCI  21
RICE LAKE      CLOUDY    32  29  86 N14       29.71R WCI  22
CHETEK         CLOUDY    32  28  86 N7        29.69R WCI  26
LADYSMITH      CLOUDY    30  23  74 NE12G17   29.72R WCI  20
EAU CLAIRE     CLOUDY    33  28  81 NE7       29.66R WCI  27
MENOMONIE      CLOUDY    34  31  90 N3        29.66R
NEW RICHMOND   CLOUDY    34  30  85 NE5       29.67R WCI  30
OSCEOLA        CLOUDY    36  31  83 NE12      29.70R WCI  27
$$

WIZ003>005-009-010-017-018-250600-
NORTH CENTRAL WISCONSIN

CITY           SKY/WX    TMP DP  RH WIND       PRES   REMARKS
MANITOWISH WTR CLOUDY    16  12  86 NE9       29.75R WCI   4
ARBOR VITAE    CLOUDY    20  15  82 NE7       29.74R WCI  11
WOODRUFF       CLOUDY    20  15  82 NE7       29.74R WCI  11
RHINELANDER    CLOUDY    19  14  81 NE7       29.73R WCI  10
EAGLE RIVER    CLOUDY    16  10  79 NE7       29.74R WCI   6
LAND O LAKES   FLURRIES  15   9  80 NE9       29.77R WCI   3
PHILLIPS       CLOUDY    23  18  81 NE12      29.71R WCI  11
TOMAHAWK       CLOUDY    24  17  74 E9        29.72R WCI  14
MEDFORD        CLOUDY    30  26  84 NE12      29.67R WCI  20
MERRILL        CLOUDY    29  22  76 NE12G17   29.70R WCI  19
$$

WIZ029-030-035-036-043>047-250600-
CENTRAL WISCONSIN

CITY           SKY/WX    TMP DP  RH WIND       PRES   REMARKS
WAUSAU         CLOUDY    31  25  78 E9        29.68R WCI  23
MOSINEE        CLOUDY    30  30 100 E13       29.69R WCI  20
MARSHFIELD     CLOUDY    33  30  88 NE3       29.65R
STEVENS POINT  CLOUDY    28  26  89 NE13      29.69R WCI  18
WAUPACA        CLOUDY    30  25  79 NE7       29.72R WCI  23
WAUTOMA        MIX PCPN  32  31  96 E14G21    29.69R FOG     WCI  22
WISC RAPIDS    LGT SNOW  32  29  88 NE13      29.68R FOG     WCI  22
CAMP DOUGLAS   CLOUDY    29  29 100 E3        29.65S
$$

WIZ011>013-019>022-031-037>040-048>050-250600-
NORTHEAST WISCONSIN

CITY           SKY/WX    TMP DP  RH WIND       PRES   REMARKS
ANTIGO         CLOUDY    25  21  85 NE13      29.70R WCI  13
SHAWANO        CLOUDY    29  22  76 E10       29.75R WCI  19
OCONTO         CLOUDY    22  15  72 N12G17    29.78R WCI  11
STURGEON BAY   CLOUDY    21  12  68 NE12      29.79R WCI   9
GREEN BAY      CLOUDY    24  18  77 NE21G28   29.76R WCI   9
MANITOWOC      CLOUDY    27  23  85 NE10G17   29.75R WCI  17
APPLETON       CLOUDY    27  21  80 NE16      29.72R WCI  14
CLINTONVILLE   CLOUDY    28  23  80 E9        29.74R WCI  20
OSHKOSH        CLOUDY    30  26  85 E15       29.71R WCI  19
$$

WIZ032>034-041-042-053>061-250600-
SOUTHWEST WISCONSIN

CITY           SKY/WX    TMP DP  RH WIND       PRES   REMARKS
LA CROSSE      CLOUDY    33  29  85 CALM      29.63S
SPARTA         CLOUDY    32  30  93 E3        29.65S
VIROQUA        CLOUDY    33  33 100 E10       29.61S WCI  25
BOSCOBEL       MOCLDY    34  30  85 NE5       29.63S WCI  30
PRAIRIE DU CHI CLOUDY    33  31  93 CALM      29.61S
PLATTEVILLE    CLOUDY    35  33  92 NE9       29.61S WCI  27
$$

WIZ056-057-062-063-064-067-068-250600-
SOUTH CENTRAL WISCONSIN

CITY           SKY/WX    TMP DP  RH WIND       PRES   REMARKS
REEDSBURG      CLOUDY    31  30  94 CALM      29.64S
BARABOO/DELLS  MOCLDY    31  29  92 CALM      29.64S FOG
LONE ROCK      MOCLDY    33  30  88 E10       29.64F WCI  25
MINERAL POINT  MOCLDY    36  32  87 E7        29.61S WCI  30
MADISON        MOCLDY    31  28  89 SE3       29.65F
MIDDLETON      MOCLDY    32  31  96 CALM      29.65F
WATERTOWN      CLOUDY    31  30  98 CALM      29.66S
MONROE         MOCLDY    32  32 100 E8        29.63S FOG     WCI  25
JANESVILLE     CLOUDY    32  32 100 E6        29.65F FOG     WCI  26
$$

WIZ051-052-058>065-066-070>072-250600-
SOUTHEAST WISCONSIN

CITY           SKY/WX    TMP DP  RH WIND       PRES   REMARKS
MILWAUKEE      CLOUDY    34  29  82 N3        29.68S
WAUKESHA       CLOUDY    32  30  93 CALM      29.68S
MILWAUKEE/TIMM CLOUDY    32  30  93 N3        29.69R
RACINE         CLOUDY    33  29  85 NW5       29.69S WCI  29
BURLINGTON     MOCLDY    29  28  97 CALM      29.68R
KENOSHA        CLOUDY    33  30  88 N3        29.67F
FOND DU LAC    CLOUDY    32  27  81 E14G22    29.70R WCI  22
SHEBOYGAN      CLOUDY    29  25  85 NE21G29   29.72R WCI  16
WEST BEND      MIX PCPN  32  28  86 NE13G20   29.70R WCI  22
JUNEAU         CLOUDY    32  31  94 E3        29.68R
$$

LSZ147-162-250600-
LAKE SUPERIOR

STATION/POSITION TIME  TEMP    WIND        PRES    WAVE
                       AIR SEA DIR/SP/G            HT/PER
                 (UTC) (F)     (DEG/KT/KT) (MB)    (FT/S)
DEVILS ISLAND    0500   20      50/ 16/ 17 1013.0R
PORT WING        0440   23      70/ 13/ 16 1010.8R
SAXON HARBOR     0400   20      CALM  /  6 1010.5R
$$

LMZ867-665-643>646-250600-
LAKE MICHIGAN

STATION/POSITION TIME  TEMP    WIND        PRES    WAVE
                       AIR SEA DIR/SP/G            HT/PER
                 (UTC) (F)     (DEG/KT/KT) (MB)    (FT/S)
NORTHPORT PIER   0502   21     360/ 17/ 21 1009.1R
SISTER BAY       0443   21     360/ 11/ 20   N/A
KEWAUNEE LAKESHO 0400   26      40/ 18/ 22 1006.7R
SHEBOYGAN LAKESH 0500   29      20/ 26/ 28 1007.5R
PORT WASHINGTON  0400   35      30/ 13/ 20 1006.4
MILWAUKEE LAKESH 0400   35     300/  4/  5   N/A
KENOSHA   LAKESH 0500   33     340/  4/  5 1005.1F
$$

TC  - TEMPERATURE IN CELSIUS
VSB - VISIBILITY IN STATUTE MILES
WCI - WIND CHILL INDEX
HX  - HEAT INDEX




USA.gov is the U.S. government's official web portal to all federal, state and local government web resources and services.